QPF
0.07 0.08 0.07 0.08 0.08 0.07 0.06 0.05 0.07 0.09 0.10 0.08 0.06 0.06 0.07 0.07 0.08 0.09 0.09 0.10 0.12 0.19 0.21 0.19 0.21 0.22 0.14 0.12 0.14 0.14 0.10 0.12 0.12 0.10 0.07 0.06 0.06 0.04 0.05 0.05 0.05 0.03 0.04
0.06 0.07 0.10 0.11 0.09 0.06 0.05 0.05 0.06 0.06 0.06 0.07 0.06 0.06 0.04 0.04 0.05 0.06 0.11 0.12 0.16 0.27 0.26 0.22 0.23 0.19 0.12 0.13 0.18 0.19 0.15 0.18 0.18 0.12 0.08 0.07 0.07 0.05 0.05 0.06 0.07 0.04 0.04
0.06 0.05 0.11 0.15 0.12 0.10 0.07 0.05 0.06 0.06 0.04 0.03 0.04 0.07 0.07 0.05 0.04 0.06 0.10 0.15 0.22 0.29 0.24 0.29 0.28 0.19 0.11 0.14 0.17 0.16 0.13 0.16 0.16 0.13 0.09 0.07 0.07 0.07 0.07 0.07 0.07 0.06 0.04
0.05 0.07 0.14 0.15 0.12 0.12 0.09 0.06 0.05 0.04 0.04 0.03 0.04 0.05 0.08 0.07 0.06 0.09 0.13 0.13 0.16 0.18 0.19 0.22 0.20 0.13 0.07 0.09 0.12 0.11 0.10 0.11 0.12 0.09 0.07 0.05 0.04 0.08 0.09 0.09 0.07 0.07 0.07
0.09 0.11 0.11 0.12 0.11 0.11 0.08 0.06 0.04 0.03 0.04 0.06 0.07 0.08 0.09 0.10 0.09 0.10 0.12 0.09 0.07 0.10 0.14 0.15 0.10 0.08 0.07 0.07 0.06 0.06 0.07 0.09 0.09 0.06 0.05 0.04 0.04 0.07 0.09 0.11 0.13 0.13 0.13
0.09 0.09 0.11 0.13 0.17 0.16 0.08 0.06 0.05 0.04 0.03 0.08 0.12 0.10 0.10 0.09 0.07 0.07 0.07 0.09 0.08 0.10 0.14 0.13 0.10 0.07 0.07 0.06 0.05 0.05 0.06 0.06 0.06 0.05 0.08 0.07 0.04 0.06 0.08 0.11 0.18 0.24 0.21
0.04 0.06 0.11 0.09 0.14 0.22 0.10 0.05 0.04 0.03 0.03 0.04 0.07 0.07 0.07 0.07 0.07 0.07 0.06 0.08 0.11 0.17 0.19 0.12 0.10 0.07 0.08 0.08 0.06 0.05 0.05 0.05 0.05 0.04 0.08 0.07 0.04 0.04 0.06 0.06 0.06 0.11 0.19
0.03 0.06 0.09 0.16 0.21 0.19 0.09 0.04 0.02 0.03 0.03 0.04 0.04 0.05 0.04 0.03 0.06 0.08 0.08 0.09 0.11 0.18 0.21 0.15 0.10 0.08 0.09 0.08 0.07 0.05 0.05 0.04 0.03 0.03 0.05 0.05 0.04 0.04 0.05 0.05 0.04 0.04 0.04
0.02 0.03 0.05 0.13 0.13 0.10 0.05 0.05 0.03 0.03 0.04 0.05 0.05 0.04 0.04 0.03 0.04 0.05 0.06 0.07 0.11 0.21 0.21 0.14 0.09 0.08 0.08 0.08 0.06 0.06 0.06 0.04 0.02 0.02 0.02 0.03 0.03 0.04 0.04 0.04 0.03 0.03 0.03
0.01 0.02 0.04 0.08 0.06 0.03 0.03 0.05 0.04 0.05 0.05 0.06 0.07 0.05 0.05 0.06 0.05 0.03 0.03 0.05 0.13 0.24 0.18 0.12 0.08 0.06 0.06 0.07 0.06 0.06 0.07 0.05 0.03 0.04 0.04 0.03 0.04 0.05 0.04 0.04 0.05 0.04 0.02
0.02 0.03 0.05 0.07 0.04 0.03 0.03 0.04 0.05 0.06 0.07 0.06 0.06 0.05 0.05 0.05 0.04 0.03 0.04 0.06 0.12 0.15 0.12 0.11 0.07 0.06 0.08 0.10 0.10 0.08 0.05 0.03 0.04 0.04 0.04 0.03 0.03 0.03 0.04 0.06 0.05 0.04 0.03
0.04 0.07 0.09 0.08 0.05 0.04 0.04 0.04 0.04 0.04 0.05 0.04 0.03 0.03 0.02 0.02 0.01 0.02 0.06 0.09 0.13 0.12 0.10 0.11 0.09 0.09 0.12 0.13 0.10 0.07 0.04 0.04 0.04 0.03 0.03 0.03 0.03 0.03 0.06 0.08 0.05 0.05 0.05
0.04 0.08 0.10 0.09 0.06 0.05 0.06 0.06 0.06 0.05 0.06 0.04 0.03 0.03 0.03 0.02 0.02 0.03 0.05 0.09 0.09 0.08 0.08 0.08 0.08 0.06 0.10 0.11 0.09 0.05 0.04 0.04 0.04 0.03 0.03 0.02 0.02 0.04 0.08 0.09 0.07 0.06 0.06
0.03 0.06 0.10 0.10 0.09 0.08 0.06 0.06 0.07 0.07 0.07 0.04 0.04 0.04 0.03 0.03 0.05 0.05 0.04 0.05 0.06 0.04 0.06 0.06 0.08 0.06 0.08 0.08 0.08 0.06 0.05 0.03 0.04 0.03 0.04 0.02 0.03 0.05 0.10 0.12 0.07 0.07 0.07
0.02 0.03 0.06 0.07 0.08 0.07 0.06 0.07 0.06 0.05 0.03 0.04 0.04 0.06 0.03 0.04 0.05 0.06 0.06 0.06 0.05 0.05 0.07 0.08 0.08 0.07 0.11 0.10 0.08 0.06 0.08 0.08 0.08 0.05 0.04 0.02 0.02 0.04 0.08 0.13 0.11 0.08 0.07
0.01 0.02 0.02 0.04 0.05 0.05 0.05 0.05 0.04 0.03 0.03 0.03 0.03 0.04 0.03 0.04 0.08 0.16 0.18 0.12 0.06 0.06 0.09 0.10 0.09 0.07 0.09 0.09 0.09 0.09 0.08 0.09 0.08 0.04 0.04 0.03 0.03 0.04 0.05 0.07 0.08 0.07 0.06
0.01 0.01 0.01 0.01 0.02 0.03 0.03 0.03 0.04 0.04 0.04 0.03 0.03 0.02 0.03 0.04 0.10 0.20 0.21 0.14 0.08 0.07 0.08 0.08 0.08 0.08 0.12 0.10 0.08 0.06 0.05 0.06 0.03 0.03 0.04 0.04 0.03 0.03 0.03 0.03 0.04 0.05 0.05
0.01 0.00 0.00 0.01 0.01 0.01 0.02 0.02 0.02 0.03 0.04 0.02 0.02 0.02 0.02 0.04 0.07 0.13 0.13 0.12 0.09 0.09 0.08 0.07 0.07 0.08 0.09 0.10 0.08 0.05 0.04 0.04 0.04 0.03 0.04 0.05 0.03 0.02 0.02 0.03 0.04 0.05 0.05
0.01 0.01 0.01 0.01 0.01 0.01 0.01 0.01 0.02 0.02 0.02 0.02 0.02 0.02 0.02 0.02 0.04 0.06 0.07 0.08 0.08 0.08 0.06 0.04 0.05 0.04 0.06 0.11 0.09 0.05 0.05 0.04 0.04 0.03 0.02 0.03 0.03 0.02 0.03 0.04 0.05 0.04 0.04
0.01 0.01 0.00 0.00 0.01 0.01 0.01 0.01 0.02 0.01 0.01 0.01 0.01 0.01 0.01 0.01 0.02 0.02 0.03 0.05 0.04 0.03 0.04 0.05 0.04 0.03 0.04 0.06 0.08 0.08 0.07 0.06 0.04 0.04 0.03 0.03 0.02 0.03 0.07 0.10 0.05 0.04 0.04
0.01 0.00 0.00 0.00 0.01 0.01 0.01 0.01 0.01 0.01 0.01 0.01 0.01 0.01 0.01 0.01 0.02 0.02 0.02 0.03 0.02 0.02 0.02 0.02 0.02 0.02 0.03 0.06 0.09 0.10 0.09 0.07 0.06 0.05 0.05 0.04 0.05 0.10 0.15 0.11 0.06 0.06 0.05
0.01 0.01 0.00 0.00 0.00 0.00 0.00 0.00 0.01 0.01 0.01 0.01 0.01 0.01 0.01 0.01 0.01 0.01 0.01 0.01 0.01 0.02 0.02 0.02 0.02 0.01 0.02 0.04 0.06 0.09 0.10 0.11 0.08 0.08 0.06 0.07 0.08 0.09 0.11 0.09 0.07 0.07 0.05
0.01 0.00 0.00 0.00 0.01 0.00 0.01 0.01 0.01 0.01 0.01 0.01 0.01 0.02 0.01 0.01 0.01 0.01 0.01 0.01 0.02 0.02 0.02 0.03 0.03 0.03 0.02 0.03 0.05 0.07 0.08 0.08 0.07 0.09 0.06 0.08 0.08 0.07 0.12 0.11 0.10 0.09 0.08
0.01 0.00 0.00 0.01 0.01 0.01 0.01 0.01 0.01 0.01 0.01 0.00 0.01 0.02 0.02 0.01 0.01 0.02 0.02 0.03 0.04 0.04 0.04 0.04 0.04 0.04 0.04 0.03 0.05 0.06 0.07 0.09 0.09 0.08 0.09 0.11 0.11 0.08 0.08 0.07 0.05 0.04 0.04
0.00 0.00 0.01 0.00 0.01 0.01 0.02 0.02 0.03 0.03 0.03 0.03 0.04 0.03 0.03 0.02 0.02 0.02 0.03 0.04 0.05 0.05 0.05 0.08 0.10 0.09 0.06 0.04 0.04 0.04 0.06 0.07 0.07 0.06 0.05 0.05 0.04 0.03 0.03 0.03 0.03 0.03 0.03
0.01 0.01 0.01 0.00 0.00 0.00 0.01 0.02 0.02 0.02 0.05 0.05 0.06 0.08 0.08 0.07 0.07 0.07 0.08 0.06 0.04 0.05 0.06 0.08 0.09 0.07 0.06 0.06 0.06 0.05 0.05 0.06 0.06 0.09 0.07 0.04 0.03 0.03 0.04 0.05 0.05 0.06 0.06
MSLP
1011.22 1010.56 1010.04 1009.72 1009.63 1009.71 1009.91 1010.14 1010.33 1010.47 1010.56 1010.66 1010.82 1011.10 1011.52 1012.05 1012.65 1013.26 1013.80 1014.24 1014.55 1014.77 1014.92 1015.05 1015.21 1015.42 1015.67 1015.93 1016.18 1016.40 1016.57 1016.70 1016.81 1016.93 1017.06 1017.23 1017.43 1017.62 1017.78 1017.90 1017.97 1017.98 1017.97
1011.36 1010.80 1010.37 1010.13 1010.08 1010.18 1010.38 1010.58 1010.75 1010.87 1010.96 1011.08 1011.28 1011.59 1012.04 1012.60 1013.21 1013.80 1014.32 1014.72 1015.01 1015.19 1015.32 1015.44 1015.59 1015.79 1016.02 1016.26 1016.48 1016.66 1016.80 1016.91 1017.00 1017.11 1017.26 1017.44 1017.64 1017.84 1018.02 1018.14 1018.21 1018.22 1018.21
1011.44 1010.98 1010.63 1010.47 1010.47 1010.60 1010.80 1011.00 1011.16 1011.28 1011.38 1011.52 1011.74 1012.08 1012.54 1013.09 1013.67 1014.23 1014.70 1015.05 1015.30 1015.47 1015.60 1015.72 1015.88 1016.09 1016.32 1016.55 1016.75 1016.92 1017.04 1017.13 1017.21 1017.32 1017.46 1017.64 1017.84 1018.05 1018.22 1018.34 1018.41 1018.43 1018.43
1011.45 1011.09 1010.84 1010.74 1010.80 1010.96 1011.17 1011.38 1011.55 1011.68 1011.80 1011.96 1012.20 1012.54 1012.98 1013.49 1014.02 1014.51 1014.91 1015.23 1015.45 1015.61 1015.75 1015.91 1016.10 1016.33 1016.58 1016.82 1017.02 1017.18 1017.29 1017.37 1017.45 1017.55 1017.69 1017.86 1018.05 1018.23 1018.39 1018.51 1018.58 1018.61 1018.63
1011.43 1011.16 1011.00 1010.97 1011.08 1011.27 1011.50 1011.72 1011.90 1012.05 1012.20 1012.38 1012.62 1012.95 1013.36 1013.81 1014.26 1014.67 1015.01 1015.28 1015.48 1015.66 1015.83 1016.03 1016.27 1016.54 1016.82 1017.07 1017.28 1017.43 1017.54 1017.62 1017.70 1017.79 1017.92 1018.08 1018.25 1018.41 1018.55 1018.65 1018.72 1018.76 1018.80
1011.41 1011.23 1011.15 1011.20 1011.35 1011.57 1011.81 1012.04 1012.23 1012.40 1012.57 1012.76 1013.01 1013.32 1013.68 1014.06 1014.44 1014.77 1015.06 1015.28 1015.48 1015.68 1015.89 1016.15 1016.44 1016.75 1017.05 1017.31 1017.52 1017.67 1017.78 1017.86 1017.93 1018.03 1018.16 1018.30 1018.45 1018.58 1018.69 1018.76 1018.82 1018.87 1018.94
1011.45 1011.36 1011.35 1011.45 1011.63 1011.87 1012.12 1012.35 1012.55 1012.73 1012.92 1013.13 1013.38 1013.66 1013.98 1014.30 1014.61 1014.88 1015.11 1015.31 1015.51 1015.73 1015.99 1016.29 1016.62 1016.96 1017.27 1017.53 1017.73 1017.87 1017.97 1018.05 1018.13 1018.23 1018.36 1018.49 1018.62 1018.72 1018.80 1018.85 1018.89 1018.95 1019.03
1011.59 1011.57 1011.62 1011.77 1011.97 1012.20 1012.44 1012.66 1012.86 1013.05 1013.25 1013.47 1013.73 1014.00 1014.29 1014.56 1014.81 1015.03 1015.22 1015.41 1015.61 1015.86 1016.15 1016.48 1016.83 1017.17 1017.47 1017.71 1017.88 1018.00 1018.08 1018.16 1018.25 1018.36 1018.49 1018.63 1018.74 1018.83 1018.88 1018.91 1018.93 1018.98 1019.07
1011.82 1011.87 1011.98 1012.16 1012.36 1012.58 1012.80 1012.99 1013.18 1013.37 1013.58 1013.82 1014.08 1014.35 1014.62 1014.87 1015.08 1015.26 1015.43 1015.60 1015.81 1016.07 1016.37 1016.71 1017.05 1017.37 1017.63 1017.82 1017.95 1018.03 1018.09 1018.16 1018.26 1018.39 1018.55 1018.69 1018.82 1018.90 1018.94 1018.94 1018.95 1018.98 1019.07
1012.13 1012.24 1012.41 1012.60 1012.80 1013.00 1013.17 1013.34 1013.50 1013.69 1013.90 1014.15 1014.43 1014.71 1014.97 1015.21 1015.40 1015.56 1015.71 1015.87 1016.08 1016.33 1016.62 1016.94 1017.25 1017.52 1017.73 1017.86 1017.93 1017.97 1018.00 1018.07 1018.18 1018.33 1018.51 1018.69 1018.83 1018.92 1018.96 1018.96 1018.95 1018.96 1019.03
1012.44 1012.63 1012.84 1013.06 1013.25 1013.42 1013.55 1013.68 1013.82 1013.99 1014.21 1014.47 1014.76 1015.06 1015.33 1015.56 1015.74 1015.90 1016.03 1016.18 1016.37 1016.61 1016.87 1017.15 1017.41 1017.62 1017.76 1017.83 1017.84 1017.83 1017.84 1017.90 1018.01 1018.19 1018.40 1018.61 1018.78 1018.90 1018.95 1018.95 1018.94 1018.94 1018.99
1012.70 1012.96 1013.23 1013.46 1013.65 1013.79 1013.89 1013.98 1014.10 1014.26 1014.48 1014.75 1015.06 1015.37 1015.66 1015.89 1016.08 1016.22 1016.35 1016.49 1016.65 1016.86 1017.09 1017.32 1017.52 1017.66 1017.74 1017.74 1017.71 1017.66 1017.64 1017.69 1017.81 1018.00 1018.23 1018.47 1018.68 1018.82 1018.90 1018.93 1018.92 1018.92 1018.96
1012.84 1013.18 1013.49 1013.76 1013.95 1014.07 1014.15 1014.22 1014.32 1014.48 1014.70 1014.99 1015.31 1015.63 1015.92 1016.16 1016.35 1016.49 1016.61 1016.73 1016.88 1017.05 1017.24 1017.42 1017.57 1017.66 1017.69 1017.65 1017.57 1017.50 1017.46 1017.49 1017.61 1017.80 1018.04 1018.29 1018.52 1018.70 1018.81 1018.87 1018.89 1018.90 1018.94
1012.84 1013.24 1013.60 1013.89 1014.10 1014.22 1014.30 1014.37 1014.47 1014.62 1014.85 1015.14 1015.47 1015.80 1016.10 1016.34 1016.53 1016.67 1016.79 1016.90 1017.02 1017.17 1017.33 1017.47 1017.59 1017.65 1017.64 1017.58 1017.49 1017.40 1017.34 1017.36 1017.45 1017.62 1017.84 1018.08 1018.31 1018.51 1018.65 1018.75 1018.80 1018.84 1018.89
1012.69 1013.14 1013.54 1013.86 1014.08 1014.23 1014.33 1014.41 1014.52 1014.69 1014.93 1015.22 1015.55 1015.87 1016.16 1016.41 1016.60 1016.74 1016.86 1016.97 1017.09 1017.22 1017.36 1017.49 1017.58 1017.63 1017.62 1017.57 1017.47 1017.38 1017.31 1017.30 1017.35 1017.47 1017.64 1017.84 1018.05 1018.24 1018.40 1018.53 1018.63 1018.71 1018.79
1012.44 1012.91 1013.33 1013.67 1013.93 1014.10 1014.24 1014.36 1014.50 1014.69 1014.93 1015.22 1015.53 1015.83 1016.12 1016.35 1016.54 1016.70 1016.82 1016.94 1017.07 1017.20 1017.34 1017.47 1017.58 1017.64 1017.65 1017.61 1017.53 1017.45 1017.37 1017.32 1017.31 1017.36 1017.45 1017.58 1017.73 1017.89 1018.04 1018.19 1018.33 1018.46 1018.58
1012.16 1012.62 1013.04 1013.39 1013.67 1013.89 1014.07 1014.24 1014.42 1014.63 1014.88 1015.14 1015.43 1015.70 1015.96 1016.18 1016.37 1016.54 1016.68 1016.83 1016.98 1017.14 1017.29 1017.44 1017.57 1017.65 1017.69 1017.69 1017.64 1017.56 1017.48 1017.39 1017.32 1017.27 1017.26 1017.29 1017.35 1017.45 1017.57 1017.72 1017.89 1018.06 1018.23
1011.91 1012.32 1012.71 1013.06 1013.37 1013.63 1013.87 1014.10 1014.32 1014.55 1014.79 1015.03 1015.26 1015.49 1015.71 1015.91 1016.09 1016.27 1016.45 1016.63 1016.82 1017.01 1017.20 1017.38 1017.53 1017.65 1017.72 1017.76 1017.74 1017.68 1017.59 1017.47 1017.33 1017.19 1017.07 1016.98 1016.93 1016.94 1017.01 1017.13 1017.30 1017.50 1017.71
1011.72 1012.06 1012.41 1012.74 1013.07 1013.38 1013.67 1013.96 1014.22 1014.46 1014.68 1014.87 1015.05 1015.22 1015.38 1015.54 1015.72 1015.91 1016.13 1016.35 1016.59 1016.82 1017.05 1017.25 1017.43 1017.58 1017.69 1017.75 1017.77 1017.73 1017.64 1017.50 1017.31 1017.09 1016.86 1016.65 1016.49 1016.39 1016.38 1016.46 1016.61 1016.81 1017.04
1011.58 1011.84 1012.13 1012.45 1012.79 1013.14 1013.49 1013.82 1014.12 1014.36 1014.56 1014.70 1014.80 1014.89 1014.98 1015.10 1015.27 1015.47 1015.72 1015.99 1016.27 1016.54 1016.80 1017.03 1017.23 1017.40 1017.53 1017.62 1017.67 1017.66 1017.59 1017.44 1017.22 1016.94 1016.63 1016.32 1016.05 1015.85 1015.74 1015.74 1015.85 1016.02 1016.24
1011.43 1011.63 1011.87 1012.16 1012.52 1012.91 1013.31 1013.69 1014.01 1014.25 1014.41 1014.48 1014.51 1014.51 1014.53 1014.60 1014.74 1014.95 1015.22 1015.53 1015.85 1016.15 1016.43 1016.68 1016.88 1017.06 1017.20 1017.32 1017.40 1017.42 1017.38 1017.25 1017.03 1016.73 1016.37 1015.99 1015.64 1015.34 1015.14 1015.05 1015.08 1015.20 1015.38
1011.22 1011.35 1011.56 1011.84 1012.21 1012.63 1013.08 1013.50 1013.85 1014.09 1014.21 1014.23 1014.17 1014.09 1014.04 1014.05 1014.16 1014.36 1014.64 1014.97 1015.31 1015.64 1015.93 1016.17 1016.37 1016.54 1016.68 1016.81 1016.92 1016.99 1017.00 1016.92 1016.74 1016.46 1016.09 1015.68 1015.27 1014.90 1014.61 1014.43 1014.36 1014.40 1014.52
1010.86 1010.96 1011.14 1011.42 1011.81 1012.27 1012.75 1013.21 1013.58 1013.83 1013.92 1013.89 1013.77 1013.62 1013.50 1013.45 1013.52 1013.70 1013.98 1014.32 1014.66 1014.99 1015.27 1015.50 1015.68 1015.83 1015.97 1016.11 1016.25 1016.37 1016.44 1016.43 1016.32 1016.10 1015.78 1015.38 1014.95 1014.53 1014.17 1013.90 1013.73 1013.68 1013.71
1010.34 1010.43 1010.60 1010.88 1011.28 1011.76 1012.28 1012.77 1013.17 1013.43 1013.52 1013.46 1013.30 1013.09 1012.92 1012.83 1012.85 1013.01 1013.26 1013.58 1013.91 1014.22 1014.48 1014.68 1014.84 1014.97 1015.10 1015.25 1015.42 1015.59 1015.74 1015.81 1015.80 1015.67 1015.41 1015.06 1014.65 1014.22 1013.81 1013.47 1013.22 1013.06 1013.00
1009.69 1009.78 1009.94 1010.21 1010.62 1011.11 1011.66 1012.18 1012.60 1012.88 1012.99 1012.93 1012.75 1012.53 1012.32 1012.19 1012.18 1012.29 1012.51 1012.80 1013.10 1013.38 1013.60 1013.77 1013.90 1014.01 1014.14 1014.30 1014.50 1014.72 1014.94 1015.11 1015.20 1015.17 1015.01 1014.73 1014.36 1013.95 1013.52 1013.13 1012.81 1012.57 1012.41
1009.01 1009.09 1009.23 1009.49 1009.87 1010.36 1010.91 1011.45 1011.90 1012.22 1012.36 1012.33 1012.17 1011.95 1011.73 1011.58 1011.54 1011.61 1011.78 1012.02 1012.27 1012.51 1012.69 1012.83 1012.94 1013.04 1013.16 1013.34 1013.57 1013.85 1014.13 1014.39 1014.57 1014.64 1014.57 1014.38 1014.08 1013.70 1013.29 1012.88 1012.51 1012.21 1011.98
Thickness
5793 5798 5800 5801 5801 5801 5801 5801 5801 5802 5802 5802 5802 5801 5800 5799 5797 5796 5795 5793 5791 5789 5786 5785 5783 5781 5779 5777 5776 5774 5773 5772 5771 5770 5768 5767 5766 5765 5763 5762 5760 5758 5757
5797 5798 5799 5800 5800 5800 5800 5799 5800 5800 5800 5800 5800 5799 5798 5797 5796 5795 5793 5791 5790 5788 5786 5784 5783 5781 5778 5776 5774 5773 5771 5770 5769 5768 5767 5766 5765 5764 5762 5761 5759 5757 5756
5798 5798 5798 5798 5799 5799 5799 5798 5798 5798 5799 5798 5798 5797 5796 5795 5795 5794 5792 5790 5788 5786 5784 5783 5781 5779 5777 5775 5773 5771 5770 5768 5767 5766 5765 5764 5764 5763 5761 5760 5758 5756 5754
5798 5797 5797 5797 5798 5797 5797 5797 5797 5797 5797 5796 5796 5795 5794 5794 5793 5792 5791 5789 5787 5786 5783 5781 5779 5778 5775 5773 5772 5770 5768 5767 5766 5765 5764 5763 5762 5762 5760 5759 5757 5755 5753
5798 5797 5797 5797 5797 5796 5795 5796 5795 5795 5795 5795 5795 5793 5792 5792 5791 5790 5789 5787 5786 5784 5782 5780 5778 5776 5774 5773 5771 5769 5767 5766 5765 5764 5763 5762 5761 5760 5759 5758 5756 5754 5752
5797 5797 5798 5797 5797 5796 5795 5794 5794 5794 5793 5793 5793 5792 5791 5791 5790 5789 5787 5785 5784 5782 5780 5778 5776 5775 5773 5771 5770 5768 5767 5765 5763 5763 5762 5761 5760 5760 5758 5757 5755 5753 5752
5796 5797 5797 5798 5798 5796 5795 5794 5793 5792 5792 5791 5791 5790 5790 5789 5788 5787 5786 5784 5782 5780 5778 5776 5774 5773 5771 5770 5769 5767 5766 5764 5763 5762 5761 5760 5759 5758 5757 5756 5754 5753 5751
5797 5797 5797 5798 5798 5796 5795 5793 5792 5791 5790 5790 5789 5789 5788 5788 5787 5785 5784 5782 5781 5779 5777 5775 5774 5772 5771 5770 5768 5767 5766 5764 5762 5761 5761 5760 5759 5758 5757 5756 5754 5752 5751
5798 5797 5796 5797 5796 5795 5794 5793 5792 5791 5790 5789 5788 5787 5787 5786 5785 5784 5782 5781 5779 5778 5776 5775 5773 5772 5770 5769 5768 5766 5765 5764 5762 5761 5760 5760 5759 5758 5756 5755 5753 5752 5751
5797 5796 5796 5796 5796 5795 5794 5793 5791 5790 5789 5788 5787 5786 5786 5785 5784 5783 5781 5780 5778 5777 5775 5774 5772 5771 5770 5768 5767 5766 5764 5763 5762 5761 5760 5759 5759 5758 5756 5755 5753 5751 5750
5794 5795 5795 5795 5795 5795 5794 5793 5791 5789 5788 5787 5786 5785 5784 5783 5783 5782 5781 5779 5777 5776 5775 5773 5772 5770 5769 5767 5766 5765 5764 5762 5761 5760 5759 5758 5758 5757 5756 5755 5753 5751 5750
5791 5793 5795 5795 5795 5794 5794 5792 5790 5788 5787 5786 5785 5784 5783 5782 5782 5781 5780 5778 5777 5775 5774 5773 5771 5770 5768 5767 5766 5764 5763 5762 5761 5760 5759 5758 5757 5756 5755 5754 5752 5751 5750
5794 5795 5795 5795 5795 5794 5793 5791 5789 5788 5787 5786 5785 5784 5782 5781 5780 5780 5779 5777 5776 5775 5774 5772 5771 5769 5768 5767 5766 5764 5763 5762 5761 5760 5759 5758 5757 5756 5755 5753 5752 5750 5749
5795 5795 5796 5796 5795 5794 5792 5791 5788 5787 5786 5785 5784 5783 5782 5780 5779 5778 5777 5776 5775 5774 5773 5771 5770 5769 5768 5767 5766 5764 5763 5762 5761 5759 5758 5757 5756 5755 5754 5753 5751 5750 5748
5796 5796 5796 5797 5795 5794 5792 5791 5789 5787 5786 5785 5784 5783 5782 5781 5779 5778 5777 5776 5774 5773 5772 5771 5769 5768 5767 5766 5766 5765 5763 5762 5761 5760 5758 5757 5756 5755 5754 5753 5751 5749 5748
5797 5797 5797 5797 5796 5794 5792 5791 5789 5787 5786 5785 5784 5783 5782 5781 5779 5777 5776 5775 5774 5773 5772 5770 5769 5768 5767 5766 5765 5764 5763 5762 5761 5760 5758 5757 5756 5755 5754 5753 5751 5749 5748
5799 5799 5798 5797 5796 5795 5793 5791 5790 5788 5786 5785 5784 5783 5782 5781 5779 5777 5776 5774 5773 5772 5771 5770 5768 5767 5766 5765 5764 5763 5763 5762 5761 5759 5758 5756 5755 5754 5753 5752 5751 5749 5748
5802 5800 5799 5800 5796 5795 5793 5791 5790 5788 5786 5785 5784 5782 5782 5780 5779 5777 5775 5774 5773 5772 5770 5768 5767 5765 5763 5762 5762 5762 5762 5761 5760 5759 5757 5756 5755 5754 5753 5752 5750 5749 5747
5805 5802 5800 5799 5796 5795 5793 5791 5790 5788 5786 5785 5784 5783 5782 5780 5779 5777 5775 5773 5772 5771 5769 5768 5765 5764 5761 5761 5760 5760 5760 5760 5759 5758 5756 5755 5754 5753 5752 5751 5750 5748 5746
5807 5804 5801 5799 5797 5795 5793 5791 5789 5787 5786 5785 5784 5783 5782 5780 5779 5777 5775 5773 5772 5769 5767 5766 5763 5763 5761 5760 5760 5759 5758 5759 5758 5757 5756 5755 5753 5752 5751 5749 5748 5746 5745
5807 5804 5802 5798 5796 5794 5791 5788 5785 5783 5784 5784 5784 5783 5782 5780 5778 5777 5775 5773 5771 5768 5766 5765 5763 5761 5759 5759 5755 5752 5754 5756 5755 5755 5755 5753 5752 5751 5750 5748 5746 5744 5743
5807 5805 5802 5800 5797 5795 5793 5790 5788 5786 5784 5784 5784 5783 5782 5780 5779 5777 5775 5772 5771 5768 5766 5764 5762 5758 5757 5757 5752 5746 5742 5744 5750 5754 5752 5751 5750 5749 5748 5746 5744 5743 5742
5808 5806 5805 5801 5799 5797 5795 5791 5789 5785 5783 5781 5781 5781 5781 5780 5778 5777 5775 5773 5770 5768 5765 5763 5761 5757 5754 5755 5754 5747 5739 5735 5740 5746 5748 5748 5748 5747 5746 5744 5743 5742 5740
5811 5809 5806 5803 5800 5798 5795 5791 5786 5781 5778 5779 5780 5780 5780 5779 5777 5776 5774 5772 5769 5767 5764 5763 5761 5758 5755 5751 5751 5751 5749 5746 5738 5736 5741 5744 5745 5744 5744 5744 5742 5740 5739
5814 5810 5807 5804 5801 5798 5796 5792 5788 5784 5782 5781 5780 5778 5777 5777 5776 5775 5774 5771 5769 5767 5765 5763 5760 5758 5755 5751 5749 5749 5747 5745 5742 5735 5731 5735 5738 5741 5742 5742 5741 5739 5737
5814 5811 5808 5803 5800 5798 5796 5793 5789 5785 5782 5779 5777 5775 5774 5774 5774 5774 5773 5771 5768 5766 5764 5762 5760 5757 5754 5752 5750 5748 5745 5742 5739 5735 5730 5730 5731 5735 5738 5739 5738 5737 5736